Location: Krakow
(50.0830°N, 19.9170°E)
Time: 12:08:45
(UTC+02:00)

A-11 Canister half - Pass Details

Date: 19 March 2026
Orbit: 1523 x 1684 km, 47.3° (Epoch: 16 April)

Event Time Altitude Azimuth Distance (km) Brightness Sun altitude
Rises 13:46:46 0° 286° (WNW) 4,813 11.8 33.5°
Reaches altitude 10° 13:50:03 10° 281° (W) 3,803 11.5 33.2°
Maximum altitude 13:59:01 46° 213° (SSW) 1,988 11.6 32.3°
Drops below altitude 10° 14:07:44 10° 143° (SE) 3,695 11.2 31.4°
Sets 14:10:53 0° 138° (SE) 4,667 11.6 31.0°
